Voltar ao catálogo

STARLINK-11615

AtivoComunicaçõesVLEO
NORAD 63274·PAYLOAD·🇺🇸 United States

Lançado Mar 15, 2025 de Cape Canaveral Space Force Station

Loading…

Próximas Passagens (próximas 24 horas)

TLE

AtualizadoSource: CelesTrak SupGP

Época: Sep 15, 2026, 02:34 UTC

1 63274C 25053K   26258.10743056 -.00100510  00000+0 -78038-3 0  2581
2 63274  43.0012  50.5924 0001857 268.0916 276.4035 15.70897026    15

Acompanhe STARLINK-11615 em tempo real com AllMySat

Download on the App Store